"read_dt","SO2 (ppb)","flags","PMT voltage (V)","lamp voltage (V)","lamp intensity (Hz)","internal temp (C)","react chamber temp (C)","sample flow (l/min)","pres (mmHg)","SO2 bkg (ppb)","SO2 coefficient"
2013-09-19 00:00:00,1314E-4,5C000000,-0724,0948,11051,026.9,045.3,0.394,736.7,01.18,0.508
2013-09-19 00:01:00,1016E-5,5C000000,-0724,0948,11077,026.9,045.3,0.394,736.7,01.18,0.508
2013-09-19 00:02:00,1183E-4,5C000000,-0724,0947,11086,026.9,045.3,0.395,736.7,01.18,0.508
2013-09-19 00:03:00,1897E-4,5C000000,-0724,0948,11102,026.9,045.3,0.395,736.7,01.18,0.508
2013-09-19 00:04:00,7493E-5,5C000000,-0724,0948,10972,026.9,045.3,0.394,736.7,01.18,0.508
2013-09-19 00:05:00,8246E-5,5C000000,-0724,0948,11066,026.9,045.3,0.394,736.7,01.18,0.508
2013-09-19 00:06:00,1148E-4,5C000000,-0724,0948,11082,026.9,045.3,0.394,736.7,01.18,0.508
2013-09-19 00:07:00,1379E-4,5C000000,-0724,0948,11003,026.9,045.3,0.394,736.7,01.18,0.508
2013-09-19 00:08:00,4963E-5,5C000000,-0724,0948,11069,026.9,045.3,0.394,736.7,01.18,0.508
2013-09-19 00:09:00,1570E-4,5C000000,-0724,0947,11004,026.9,045.3,0.394,736.6,01.18,0.508
2013-09-19 00:10:00,8917E-5,5C000000,-0724,0948,11108,026.9,045.3,0.394,736.7,01.18,0.508
2013-09-19 00:11:00,1591E-4,5C000000,-0724,0948,11017,026.9,045.3,0.394,736.7,01.18,0.508
2013-09-19 00:12:00,7218E-5,5C000000,-0724,0948,11140,026.9,045.3,0.395,736.6,01.18,0.508
2013-09-19 00:13:00,1705E-4,5C000000,-0724,0948,11008,026.9,045.3,0.394,736.7,01.18,0.508
2013-09-19 00:14:00,1850E-4,5C000000,-0724,0947,11124,026.9,045.3,0.394,736.7,01.18,0.508
2013-09-19 00:15:00,1536E-4,5C000000,-0724,0948,11045,026.9,045.3,0.394,736.7,01.18,0.508
2013-09-19 00:16:00,8766E-5,5C000000,-0724,0948,11097,026.9,045.3,0.395,736.7,01.18,0.508
2013-09-19 00:17:00,1249E-4,5C000000,-0724,0948,11024,027.0,045.3,0.394,736.7,01.18,0.508
2013-09-19 00:18:00,1295E-4,5C000000,-0724,0948,11072,027.0,045.3,0.394,736.7,01.18,0.508
2013-09-19 00:19:00,1154E-4,5C000000,-0724,0948,11054,027.0,045.3,0.394,736.7,01.18,0.508
2013-09-19 00:20:00,4517E-5,5C000000,-0724,0947,10984,027.0,045.3,0.394,736.6,01.18,0.508
2013-09-19 00:21:00,-3437E-5,5C000000,-0724,0948,11096,027.0,045.3,0.394,736.6,01.18,0.508
2013-09-19 00:22:00,9875E-5,5C000000,-0724,0949,10969,027.0,045.3,0.394,736.6,01.18,0.508
2013-09-19 00:23:00,5310E-5,5C000000,-0724,0948,10977,027.0,045.3,0.394,736.6,01.18,0.508
2013-09-19 00:24:00,8733E-5,5C000000,-0724,0948,11062,027.0,045.3,0.394,736.6,01.18,0.508
2013-09-19 00:25:00,1192E-4,5C000000,-0724,0949,11116,027.0,045.3,0.394,736.6,01.18,0.508
2013-09-19 00:26:00,2206E-4,5C000000,-0724,0948,11065,027.0,045.3,0.394,736.6,01.18,0.508
2013-09-19 00:27:00,1352E-4,5C000000,-0724,0949,10977,027.0,045.3,0.394,736.6,01.18,0.508
2013-09-19 00:28:00,1633E-4,5C000000,-0724,0948,10964,027.0,045.3,0.394,736.6,01.18,0.508
2013-09-19 00:29:00,1176E-4,5C000000,-0724,0948,11083,027.0,045.3,0.394,736.6,01.18,0.508
2013-09-19 00:30:00,1490E-4,5C000000,-0724,0948,11105,027.0,045.3,0.394,736.6,01.18,0.508
2013-09-19 00:31:00,1501E-4,5C000000,-0724,0948,11012,027.0,045.3,0.394,736.6,01.18,0.508
2013-09-19 00:32:00,1654E-4,5C000000,-0724,0949,11029,027.0,045.3,0.394,736.6,01.18,0.508
2013-09-19 00:33:00,3897E-5,5C000000,-0724,0949,11040,027.0,045.3,0.394,736.6,01.18,0.508
2013-09-19 00:34:00,7022E-5,5C000000,-0724,0948,11041,027.0,045.3,0.394,736.6,01.18,0.508
2013-09-19 00:35:00,1740E-4,5C000000,-0724,0949,11008,027.0,045.3,0.394,736.6,01.18,0.508
2013-09-19 00:36:00,6918E-5,5C000000,-0724,0948,11070,027.0,045.3,0.394,736.6,01.18,0.508
2013-09-19 00:37:00,9762E-5,5C000000,-0724,0948,11123,027.0,045.3,0.394,736.6,01.18,0.508
2013-09-19 00:38:00,1337E-4,5C000000,-0724,0948,11128,027.0,045.3,0.394,736.5,01.18,0.508
2013-09-19 00:39:00,1029E-4,5C000000,-0724,0949,11050,027.0,045.3,0.394,736.5,01.18,0.508
2013-09-19 00:40:00,5710E-5,5C000000,-0724,0949,10995,027.0,045.3,0.394,736.6,01.18,0.508
2013-09-19 00:41:00,3530E-5,5C000000,-0724,0948,10921,027.0,045.3,0.394,736.5,01.18,0.508
2013-09-19 00:42:00,2264E-4,5C000000,-0724,0948,11051,027.0,045.3,0.394,736.5,01.18,0.508
2013-09-19 00:43:00,6961E-5,5C000000,-0724,0948,11146,027.1,045.3,0.394,736.5,01.18,0.508
2013-09-19 00:44:00,1387E-4,5C000000,-0724,0950,10891,027.1,045.3,0.394,736.6,01.18,0.508
2013-09-19 00:45:00,1514E-4,5C000000,-0724,0948,11017,027.1,045.3,0.394,736.6,01.18,0.508
2013-09-19 00:46:00,1327E-4,5C000000,-0724,0947,11052,027.1,045.3,0.394,736.5,01.18,0.508
2013-09-19 00:47:00,7072E-5,5C000000,-0724,0948,11070,027.1,045.3,0.394,736.6,01.18,0.508
2013-09-19 00:48:00,2357E-4,5C000000,-0724,0948,10973,027.1,045.3,0.394,736.6,01.18,0.508
2013-09-19 00:49:00,1364E-4,5C000000,-0724,0949,10901,027.1,045.3,0.393,736.6,01.18,0.508
2013-09-19 00:50:00,1131E-4,5C000000,-0724,0948,11105,027.1,045.3,0.394,736.5,01.18,0.508
2013-09-19 00:51:00,2065E-4,5C000000,-0724,0948,11064,027.1,045.3,0.394,736.6,01.18,0.508
2013-09-19 00:52:00,1360E-4,5C000000,-0724,0949,10931,027.1,045.3,0.394,736.5,01.18,0.508
2013-09-19 00:53:00,9769E-5,5C000000,-0724,0949,11189,027.1,045.3,0.394,736.6,01.18,0.508
2013-09-19 00:54:00,1528E-4,5C000000,-0724,0948,11127,027.1,045.3,0.394,736.6,01.18,0.508
2013-09-19 00:55:00,7404E-5,5C000000,-0724,0948,11016,027.1,045.3,0.394,736.6,01.18,0.508
2013-09-19 00:56:00,8307E-5,5C000000,-0724,0948,11118,027.1,045.3,0.394,736.6,01.18,0.508
2013-09-19 00:57:00,8814E-5,5C000000,-0724,0949,11127,027.1,045.3,0.394,736.6,01.18,0.508
2013-09-19 00:58:00,8570E-5,5C000000,-0724,0949,10886,027.1,045.3,0.393,736.6,01.18,0.508
2013-09-19 00:59:00,1125E-4,5C000000,-0724,0949,10922,027.1,045.3,0.394,736.6,01.18,0.508
2013-09-19 01:00:00,1787E-4,5C000000,-0724,0949,11043,027.1,045.3,0.394,736.6,01.18,0.508
2013-09-19 01:01:00,1136E-4,5C000000,-0724,0949,10928,027.1,045.3,0.394,736.6,01.18,0.508
2013-09-19 01:02:00,1605E-4,5C000000,-0724,0949,11113,027.1,045.3,0.393,736.6,01.18,0.508
2013-09-19 01:03:00,1332E-4,5C000000,-0724,0949,11007,027.1,045.3,0.394,736.6,01.18,0.508
2013-09-19 01:04:00,9857E-5,5C000000,-0724,0948,11144,027.1,045.3,0.394,736.6,01.18,0.508
2013-09-19 01:05:00,3734E-5,5C000000,-0724,0948,10958,027.1,045.3,0.394,736.6,01.18,0.508
2013-09-19 01:06:00,1179E-4,5C000000,-0724,0948,11046,027.1,045.3,0.394,736.7,01.18,0.508
2013-09-19 01:07:00,1235E-4,5C000000,-0724,0949,11066,027.1,045.3,0.394,736.6,01.18,0.508
2013-09-19 01:08:00,6550E-5,5C000000,-0724,0949,10954,027.1,045.3,0.394,736.7,01.18,0.508
2013-09-19 01:09:00,8560E-5,5C000000,-0724,0949,10961,027.1,045.3,0.394,736.6,01.18,0.508
2013-09-19 01:10:00,1382E-4,5C000000,-0724,0948,11035,027.1,045.3,0.394,736.7,01.18,0.508
2013-09-19 01:11:00,9129E-5,5C000000,-0724,0948,11117,027.1,045.3,0.393,736.7,01.18,0.508
2013-09-19 01:12:00,1050E-4,5C000000,-0724,0948,11138,027.1,045.3,0.394,736.7,01.18,0.508
2013-09-19 01:13:00,1501E-4,5C000000,-0724,0948,11106,027.1,045.3,0.394,736.7,01.18,0.508
2013-09-19 01:14:00,2324E-4,5C000000,-0724,0948,10953,027.1,045.3,0.394,736.7,01.18,0.508
2013-09-19 01:15:00,4494E-5,5C000000,-0724,0948,11030,027.2,045.3,0.393,736.7,01.18,0.508
2013-09-19 01:16:00,1511E-4,5C000000,-0724,0949,10931,027.1,045.3,0.394,736.7,01.18,0.508
2013-09-19 01:17:00,7390E-5,5C000000,-0724,0949,10995,027.1,045.3,0.394,736.7,01.18,0.508
2013-09-19 01:18:00,1412E-4,5C000000,-0724,0949,11077,027.1,045.3,0.394,736.7,01.18,0.508
2013-09-19 01:19:00,1026E-4,5C000000,-0724,0948,11005,027.1,045.3,0.393,736.7,01.18,0.508
2013-09-19 01:20:00,3254E-5,5C000000,-0724,0948,11082,027.2,045.3,0.393,736.7,01.18,0.508
2013-09-19 01:21:00,1079E-4,5C000000,-0724,0948,10932,027.1,045.3,0.394,736.7,01.18,0.508
2013-09-19 01:22:00,1331E-4,5C000000,-0724,0948,11041,027.1,045.3,0.394,736.6,01.18,0.508
2013-09-19 01:23:00,1058E-4,5C000000,-0724,0948,11020,027.1,045.3,0.393,736.6,01.18,0.508
2013-09-19 01:24:00,2115E-4,5C000000,-0724,0949,10960,027.1,045.3,0.393,736.6,01.18,0.508
2013-09-19 01:25:00,1304E-5,5C000000,-0724,0948,11098,027.2,045.3,0.394,736.7,01.18,0.508
2013-09-19 01:26:00,9325E-5,5C000000,-0724,0948,11092,027.2,045.3,0.394,736.7,01.18,0.508
2013-09-19 01:27:00,7456E-5,5C000000,-0724,0949,10946,027.2,045.3,0.394,736.6,01.18,0.508
2013-09-19 01:28:00,1521E-4,5C000000,-0724,0948,11074,027.1,045.3,0.393,736.7,01.18,0.508
2013-09-19 01:29:00,9754E-5,5C000000,-0724,0948,11119,027.2,045.3,0.394,736.7,01.18,0.508
2013-09-19 01:30:00,1212E-4,5C000000,-0724,0949,10961,027.2,045.3,0.394,736.7,01.18,0.508
2013-09-19 01:31:00,1426E-4,5C000000,-0724,0948,10789,027.2,045.3,0.394,736.7,01.18,0.508
2013-09-19 01:32:00,1575E-4,5C000000,-0724,0948,11060,027.2,045.3,0.393,736.7,01.18,0.508
2013-09-19 01:33:00,9761E-5,5C000000,-0724,0948,11117,027.2,045.3,0.394,736.7,01.18,0.508
2013-09-19 01:34:00,1336E-4,5C000000,-0724,0949,10921,027.2,045.3,0.394,736.7,01.18,0.508
2013-09-19 01:35:00,3501E-5,5C000000,-0724,0949,11099,027.2,045.3,0.394,736.7,01.18,0.508
2013-09-19 01:36:00,9324E-5,5C000000,-0724,0949,11055,027.2,045.3,0.393,736.7,01.18,0.508
2013-09-19 01:37:00,4405E-5,5C000000,-0724,0949,11006,027.2,045.4,0.394,736.7,01.18,0.508
2013-09-19 01:38:00,1830E-4,5C000000,-0724,0949,11046,027.2,045.3,0.394,736.7,01.18,0.508
2013-09-19 01:39:00,9370E-5,5C000000,-0724,0949,11089,027.2,045.3,0.394,736.7,01.18,0.508
2013-09-19 01:40:00,1596E-4,5C000000,-0724,0950,10871,027.2,045.3,0.393,736.7,01.18,0.508
2013-09-19 01:41:00,8014E-5,5C000000,-0724,0948,11129,027.2,045.4,0.393,736.7,01.18,0.508
2013-09-19 01:42:00,4351E-5,5C000000,-0724,0949,10853,027.2,045.3,0.394,736.7,01.18,0.508
2013-09-19 01:43:00,1325E-4,5C000000,-0724,0949,11080,027.2,045.3,0.394,736.7,01.18,0.508
2013-09-19 01:44:00,9655E-5,5C000000,-0724,0948,11020,027.2,045.3,0.394,736.7,01.18,0.508
2013-09-19 01:45:00,5951E-5,5C000000,-0724,0949,10883,027.2,045.3,0.393,736.7,01.18,0.508
2013-09-19 01:46:00,4311E-6,5C000000,-0724,0948,11095,027.2,045.3,0.394,736.7,01.18,0.508
2013-09-19 01:47:00,1529E-4,5C000000,-0724,0948,11020,027.2,045.3,0.394,736.7,01.18,0.508
2013-09-19 01:48:00,1173E-4,5C000000,-0724,0948,10905,027.2,045.3,0.393,736.7,01.18,0.508
2013-09-19 01:49:00,1746E-4,5C000000,-0724,0948,10976,027.2,045.3,0.393,736.7,01.18,0.508
2013-09-19 01:50:00,9992E-5,5C000000,-0724,0948,11105,027.2,045.3,0.394,736.7,01.18,0.508
2013-09-19 01:51:00,6296E-5,5C000000,-0724,0948,11083,027.2,045.3,0.394,736.7,01.18,0.508
2013-09-19 01:52:00,9446E-5,5C000000,-0724,0949,11018,027.2,045.3,0.393,736.7,01.18,0.508
2013-09-19 01:53:00,1152E-4,5C000000,-0724,0949,10990,027.2,045.3,0.393,736.7,01.18,0.508
2013-09-19 01:54:00,9044E-5,5C000000,-0724,0949,10926,027.2,045.4,0.394,736.7,01.18,0.508
2013-09-19 01:55:00,9868E-5,5C000000,-0724,0948,11065,027.2,045.3,0.394,736.7,01.18,0.508
2013-09-19 01:56:00,2027E-4,5C000000,-0724,0948,11075,027.2,045.3,0.393,736.7,01.18,0.508
2013-09-19 01:57:00,1076E-4,5C000000,-0724,0948,10959,027.2,045.3,0.393,736.7,01.18,0.508
2013-09-19 01:58:00,1817E-4,5C000000,-0724,0949,11085,027.2,045.3,0.394,736.7,01.18,0.508
2013-09-19 01:59:00,-9915E-6,5C000000,-0724,0948,10972,027.2,045.3,0.394,736.6,01.18,0.508
2013-09-19 02:00:00,1470E-5,5C000000,-0724,0949,10972,027.2,045.3,0.393,736.7,01.18,0.508
2013-09-19 02:01:00,1347E-4,5C000000,-0724,0949,10898,027.2,045.3,0.393,736.7,01.18,0.508
2013-09-19 02:02:00,6817E-5,5C000000,-0724,0949,11119,027.2,045.3,0.394,736.6,01.18,0.508
2013-09-19 02:03:00,9288E-5,5C000000,-0724,0948,11070,027.2,045.3,0.394,736.6,01.18,0.508
2013-09-19 02:04:00,1112E-4,5C000000,-0724,0949,10983,027.2,045.3,0.394,736.6,01.18,0.508
2013-09-19 02:05:00,7592E-5,5C000000,-0724,0949,11115,027.2,045.3,0.393,736.6,01.18,0.508
2013-09-19 02:06:00,9167E-5,5C000000,-0724,0948,11006,027.2,045.3,0.393,736.6,01.18,0.508
2013-09-19 02:07:00,1521E-4,5C000000,-0724,0949,10923,027.2,045.3,0.394,736.6,01.18,0.508
2013-09-19 02:08:00,1229E-4,5C000000,-0724,0949,11069,027.2,045.3,0.394,736.6,01.18,0.508
2013-09-19 02:09:00,1718E-4,5C000000,-0724,0948,10815,027.2,045.3,0.393,736.6,01.18,0.508
2013-09-19 02:10:00,1241E-4,5C000000,-0724,0948,11021,027.2,045.3,0.393,736.6,01.18,0.508
2013-09-19 02:11:00,1608E-4,5C000000,-0724,0949,11012,027.2,045.3,0.394,736.6,01.18,0.508
2013-09-19 02:12:00,1184E-4,5C000000,-0724,0948,10923,027.3,045.3,0.394,736.6,01.18,0.508
2013-09-19 02:13:00,1203E-4,5C000000,-0724,0949,11039,027.2,045.3,0.393,736.6,01.18,0.508
2013-09-19 02:14:00,2125E-4,5C000000,-0724,0949,11111,027.3,045.3,0.393,736.6,01.18,0.508
2013-09-19 02:15:00,7577E-5,5C000000,-0724,0948,11042,027.3,045.3,0.394,736.6,01.18,0.508
2013-09-19 02:16:00,9456E-5,5C000000,-0724,0948,11033,027.3,045.3,0.394,736.6,01.18,0.508
2013-09-19 02:17:00,7283E-5,5C000000,-0724,0949,11133,027.3,045.3,0.393,736.6,01.18,0.508
2013-09-19 02:18:00,1659E-4,5C000000,-0724,0949,11040,027.3,045.3,0.393,736.6,01.18,0.508
2013-09-19 02:19:00,1254E-4,5C000000,-0724,0948,11041,027.3,045.3,0.394,736.6,01.18,0.508
2013-09-19 02:20:00,1078E-4,5C000000,-0724,0950,11127,027.3,045.3,0.394,736.6,01.18,0.508
2013-09-19 02:21:00,1405E-4,5C000000,-0724,0949,11104,027.3,045.3,0.393,736.6,01.18,0.508
2013-09-19 02:22:00,1456E-4,5C000000,-0724,0948,11076,027.3,045.3,0.393,736.6,01.18,0.508
2013-09-19 02:23:00,4682E-5,5C000000,-0724,0948,11060,027.3,045.3,0.394,736.6,01.18,0.508
2013-09-19 02:24:00,1336E-4,5C000000,-0724,0949,10922,027.3,045.3,0.394,736.6,01.18,0.508
2013-09-19 02:25:00,2510E-4,5C000000,-0724,0948,11023,027.3,045.3,0.393,736.5,01.18,0.508
2013-09-19 02:26:00,1218E-4,5C000000,-0724,0949,11112,027.3,045.3,0.393,736.5,01.18,0.508
2013-09-19 02:27:00,1571E-4,5C000000,-0724,0949,10987,027.3,045.3,0.394,736.5,01.18,0.508
2013-09-19 02:28:00,1483E-4,5C000000,-0724,0949,10966,027.3,045.3,0.394,736.5,01.18,0.508
2013-09-19 02:29:00,9651E-5,5C000000,-0724,0949,11000,027.3,045.3,0.393,736.5,01.18,0.508
2013-09-19 02:30:00,2093E-4,5C000000,-0724,0949,11004,027.3,045.3,0.393,736.6,01.18,0.508
2013-09-19 02:31:00,7746E-5,5C000000,-0724,0948,10910,027.3,045.3,0.394,736.6,01.18,0.508
2013-09-19 02:32:00,1082E-4,5C000000,-0724,0949,11102,027.3,045.3,0.394,736.5,01.18,0.508
2013-09-19 02:33:00,1073E-4,5C000000,-0724,0948,11050,027.3,045.3,0.393,736.5,01.18,0.508
2013-09-19 02:34:00,1135E-4,5C000000,-0724,0948,10916,027.3,045.3,0.393,736.5,01.18,0.508
2013-09-19 02:35:00,1208E-4,5C000000,-0724,0949,10920,027.3,045.3,0.393,736.5,01.18,0.508
2013-09-19 02:36:00,6767E-5,5C000000,-0724,0949,11068,027.2,045.3,0.394,736.5,01.18,0.508
2013-09-19 02:37:00,1359E-4,5C000000,-0724,0948,10917,027.3,045.3,0.394,736.5,01.18,0.508
2013-09-19 02:38:00,1491E-4,5C000000,-0724,0948,11037,027.3,045.3,0.393,736.5,01.18,0.508
2013-09-19 02:39:00,1526E-4,5C000000,-0724,0948,11067,027.3,045.3,0.393,736.5,01.18,0.508
2013-09-19 02:40:00,1264E-4,5C000000,-0724,0948,10988,027.3,045.3,0.394,736.5,01.18,0.508
2013-09-19 02:41:00,6942E-5,5C000000,-0724,0949,11033,027.3,045.3,0.394,736.5,01.18,0.508
2013-09-19 02:42:00,1020E-4,5C000000,-0724,0949,11109,027.3,045.3,0.393,736.5,01.18,0.508
2013-09-19 02:43:00,1661E-4,5C000000,-0724,0949,11103,027.3,045.3,0.393,736.5,01.18,0.508
2013-09-19 02:44:00,1815E-4,5C000000,-0724,0948,11120,027.3,045.3,0.393,736.5,01.18,0.508
2013-09-19 02:45:00,9205E-5,5C000000,-0724,0949,11055,027.3,045.3,0.394,736.5,01.18,0.508
2013-09-19 02:46:00,1434E-4,5C000000,-0724,0948,10988,027.3,045.3,0.394,736.4,01.18,0.508
2013-09-19 02:47:00,9830E-5,5C000000,-0724,0949,11101,027.3,045.3,0.393,736.5,01.18,0.508
2013-09-19 02:48:00,3608E-5,5C000000,-0724,0948,10953,027.3,045.3,0.393,736.5,01.18,0.508
2013-09-19 02:49:00,1610E-4,5C000000,-0724,0949,11101,027.3,045.3,0.394,736.5,01.18,0.508
2013-09-19 02:50:00,1150E-4,5C000000,-0724,0948,11042,027.3,045.3,0.394,736.5,01.18,0.508
2013-09-19 02:51:00,1591E-4,5C000000,-0724,0949,11091,027.3,045.3,0.393,736.5,01.18,0.508
2013-09-19 02:52:00,9376E-5,5C000000,-0724,0949,10984,027.3,045.3,0.393,736.5,01.18,0.508
2013-09-19 02:53:00,1391E-4,5C000000,-0724,0948,11028,027.3,045.3,0.393,736.5,01.18,0.508
2013-09-19 02:54:00,1104E-4,5C000000,-0724,0949,10819,027.3,045.3,0.394,736.5,01.18,0.508
2013-09-19 02:55:00,1336E-4,5C000000,-0724,0949,10913,027.3,045.3,0.394,736.4,01.18,0.508
2013-09-19 02:56:00,1060E-4,5C000000,-0724,0948,10858,027.3,045.3,0.393,736.4,01.18,0.508
2013-09-19 02:57:00,1969E-4,5C000000,-0724,0949,11007,027.3,045.3,0.393,736.4,01.18,0.508
2013-09-19 02:58:00,1748E-4,5C000000,-0724,0949,11160,027.3,045.3,0.394,736.5,01.18,0.508
2013-09-19 02:59:00,9408E-5,5C000000,-0724,0949,11047,027.3,045.3,0.394,736.5,01.18,0.508
2013-09-19 03:00:00,6545E-5,5C000000,-0724,0949,11080,027.3,045.3,0.393,736.5,01.18,0.508
2013-09-19 03:01:00,1681E-4,5C000000,-0724,0949,10965,027.3,045.3,0.393,736.5,01.18,0.508
2013-09-19 03:02:00,1447E-4,5C000000,-0724,0949,11066,027.3,045.4,0.393,736.5,01.18,0.508
2013-09-19 03:03:00,9165E-5,5C000000,-0724,0948,10995,027.3,045.3,0.394,736.4,01.18,0.508
2013-09-19 03:04:00,1892E-4,5C000000,-0724,0949,11094,027.3,045.3,0.393,736.4,01.18,0.508
2013-09-19 03:05:00,1843E-4,5C000000,-0724,0949,10808,027.3,045.3,0.393,736.4,01.18,0.508
2013-09-19 03:06:00,1075E-4,5C000000,-0724,0949,11058,027.3,045.3,0.393,736.4,01.18,0.508
2013-09-19 03:07:00,7474E-5,5C000000,-0724,0950,11146,027.3,045.3,0.394,736.5,01.18,0.508
2013-09-19 03:08:00,4147E-5,5C000000,-0724,0949,11051,027.3,045.3,0.393,736.5,01.18,0.508
2013-09-19 03:09:00,7313E-5,5C000000,-0724,0949,11062,027.3,045.3,0.393,736.4,01.18,0.508
2013-09-19 03:10:00,9964E-5,5C000000,-0724,0949,10958,027.3,045.3,0.394,736.4,01.18,0.508
2013-09-19 03:11:00,1178E-4,5C000000,-0724,0949,11088,027.3,045.3,0.394,736.4,01.18,0.508
2013-09-19 03:12:00,8036E-5,5C000000,-0724,0950,10998,027.3,045.3,0.393,736.4,01.18,0.508
2013-09-19 03:13:00,1111E-4,5C000000,-0724,0949,11005,027.3,045.3,0.393,736.4,01.18,0.508
2013-09-19 03:14:00,1740E-4,5C000000,-0724,0948,10976,027.3,045.3,0.393,736.3,01.18,0.508
2013-09-19 03:15:00,1429E-4,5C000000,-0724,0950,11066,027.3,045.3,0.394,736.3,01.18,0.508
2013-09-19 03:16:00,7548E-5,5C000000,-0724,0948,11075,027.4,045.3,0.394,736.4,01.18,0.508
2013-09-19 03:17:00,1516E-4,5C000000,-0724,0949,10953,027.3,045.3,0.393,736.4,01.18,0.508
2013-09-19 03:18:00,1357E-4,5C000000,-0724,0948,11075,027.3,045.3,0.393,736.4,01.18,0.508
2013-09-19 03:19:00,1149E-4,5C000000,-0724,0950,10928,027.3,045.3,0.393,736.4,01.18,0.508
2013-09-19 03:20:00,9539E-5,5C000000,-0724,0948,11004,027.3,045.3,0.394,736.4,01.18,0.508
2013-09-19 03:21:00,1135E-4,5C000000,-0724,0949,10969,027.3,045.3,0.393,736.4,01.18,0.508
2013-09-19 03:22:00,1495E-4,5C000000,-0724,0949,11071,027.4,045.3,0.393,736.4,01.18,0.508
2013-09-19 03:23:00,1117E-4,5C000000,-0724,0949,10938,027.4,045.3,0.393,736.4,01.18,0.508
2013-09-19 03:24:00,2050E-4,5C000000,-0724,0949,11036,027.4,045.3,0.393,736.4,01.18,0.508
2013-09-19 03:25:00,9695E-5,5C000000,-0724,0950,11010,027.4,045.3,0.394,736.4,01.18,0.508
2013-09-19 03:26:00,1357E-4,5C000000,-0724,0949,10961,027.4,045.3,0.393,736.4,01.18,0.508
2013-09-19 03:27:00,3531E-5,5C000000,-0724,0949,11064,027.4,045.3,0.393,736.4,01.18,0.508
2013-09-19 03:28:00,7196E-5,5C000000,-0724,0949,11200,027.4,045.4,0.393,736.4,01.18,0.508
2013-09-19 03:29:00,1580E-4,5C000000,-0724,0949,11069,027.4,045.4,0.393,736.4,01.18,0.508
2013-09-19 03:30:00,2055E-4,5C000000,-0724,0950,11057,027.4,045.3,0.394,736.4,01.18,0.508
2013-09-19 03:31:00,1018E-4,5C000000,-0724,0948,10968,027.4,045.3,0.393,736.4,01.18,0.508
2013-09-19 03:32:00,3808E-5,5C000000,-0724,0949,11218,027.4,045.3,0.393,736.4,01.18,0.508
2013-09-19 03:33:00,1200E-4,5C000000,-0724,0949,10975,027.4,045.3,0.393,736.4,01.18,0.508
2013-09-19 03:34:00,1002E-4,5C000000,-0724,0949,10786,027.4,045.3,0.393,736.4,01.18,0.508
2013-09-19 03:35:00,1210E-4,5C000000,-0724,0949,10968,027.4,045.3,0.394,736.4,01.18,0.508
2013-09-19 03:36:00,1327E-4,5C000000,-0724,0949,11016,027.4,045.3,0.393,736.4,01.18,0.508
2013-09-19 03:37:00,1590E-4,5C000000,-0724,0950,10990,027.4,045.3,0.393,736.3,01.18,0.508
2013-09-19 03:38:00,6704E-5,5C000000,-0724,0949,11020,027.4,045.3,0.393,736.3,01.18,0.508
2013-09-19 03:39:00,1568E-4,5C000000,-0724,0949,11074,027.4,045.3,0.393,736.3,01.18,0.508
2013-09-19 03:40:00,9741E-5,5C000000,-0724,0948,11007,027.5,045.3,0.393,736.3,01.18,0.508
2013-09-19 03:41:00,8604E-5,5C000000,-0724,0949,10945,027.5,045.3,0.393,736.3,01.18,0.508
2013-09-19 03:42:00,1216E-4,5C000000,-0724,0949,11087,027.4,045.3,0.393,736.4,01.18,0.508
2013-09-19 03:43:00,1237E-4,5C000000,-0724,0949,11068,027.5,045.4,0.393,736.3,01.18,0.508
2013-09-19 03:44:00,9210E-5,5C000000,-0724,0950,10927,027.5,045.3,0.393,736.4,01.18,0.508
2013-09-19 03:45:00,1896E-4,5C000000,-0724,0949,11131,027.5,045.3,0.393,736.3,01.18,0.508
2013-09-19 03:46:00,7879E-5,5C000000,-0724,0949,11027,027.5,045.3,0.393,736.3,01.18,0.508
2013-09-19 03:47:00,9410E-5,5C000000,-0724,0949,10885,027.5,045.3,0.393,736.3,01.18,0.508
2013-09-19 03:48:00,4910E-5,5C000000,-0724,0949,10945,027.5,045.3,0.393,736.3,01.18,0.508
2013-09-19 03:49:00,5416E-5,5C000000,-0724,0950,11143,027.5,045.3,0.393,736.3,01.18,0.508
2013-09-19 03:50:00,1089E-4,5C000000,-0724,0949,10991,027.5,045.3,0.393,736.3,01.18,0.508
2013-09-19 03:51:00,8795E-5,5C000000,-0724,0949,11094,027.5,045.4,0.393,736.3,01.18,0.508
2013-09-19 03:52:00,1167E-4,5C000000,-0724,0949,11175,027.5,045.4,0.393,736.3,01.18,0.508
2013-09-19 03:53:00,1822E-4,5C000000,-0724,0948,11077,027.5,045.3,0.393,736.2,01.18,0.508
2013-09-19 03:54:00,9732E-5,5C000000,-0724,0949,11044,027.6,045.3,0.393,736.3,01.18,0.508
2013-09-19 03:55:00,1370E-4,5C000000,-0724,0949,11059,027.6,045.4,0.392,736.3,01.18,0.508
2013-09-19 03:56:00,1281E-4,5C000000,-0724,0948,10936,027.6,045.4,0.393,736.3,01.18,0.508
2013-09-19 03:57:00,1460E-4,5C000000,-0724,0949,10996,027.6,045.4,0.393,736.3,01.18,0.508
2013-09-19 03:58:00,9478E-5,5C000000,-0724,0949,10990,027.6,045.3,0.393,736.3,01.18,0.508
2013-09-19 03:59:00,2086E-4,5C000000,-0724,0949,11036,027.6,045.4,0.393,736.3,01.18,0.508
2013-09-19 04:00:00,1922E-4,5C000000,-0724,0949,10981,027.6,045.3,0.392,736.3,01.18,0.508
2013-09-19 04:01:00,1139E-4,5C000000,-0724,0950,11129,027.6,045.3,0.393,736.3,01.18,0.508
2013-09-19 04:02:00,8715E-5,5C000000,-0724,0949,11182,027.6,045.3,0.393,736.3,01.18,0.508
2013-09-19 04:03:00,1222E-4,5C000000,-0724,0950,11171,027.6,045.3,0.393,736.3,01.18,0.508
2013-09-19 04:04:00,8748E-5,5C000000,-0724,0949,10950,027.7,045.3,0.392,736.3,01.18,0.508
2013-09-19 04:05:00,9270E-5,5C000000,-0724,0949,10992,027.6,045.3,0.392,736.3,01.18,0.508
2013-09-19 04:06:00,9649E-5,5C000000,-0724,0950,10999,027.7,045.4,0.393,736.3,01.18,0.508
2013-09-19 04:07:00,1170E-4,5C000000,-0724,0949,10940,027.7,045.3,0.393,736.3,01.18,0.508
2013-09-19 04:08:00,9129E-5,5C000000,-0724,0950,11066,027.7,045.3,0.392,736.3,01.18,0.508
2013-09-19 04:09:00,1455E-4,5C000000,-0724,0950,11033,027.7,045.4,0.392,736.3,01.18,0.508
2013-09-19 04:10:00,1404E-4,5C000000,-0724,0950,11001,027.7,045.3,0.393,736.3,01.18,0.508
2013-09-19 04:11:00,7692E-5,5C000000,-0724,0949,11056,027.7,045.3,0.393,736.3,01.18,0.508
2013-09-19 04:12:00,1304E-4,5C000000,-0724,0950,10974,027.7,045.4,0.393,736.3,01.18,0.508
2013-09-19 04:13:00,8079E-5,5C000000,-0724,0950,11169,027.7,045.3,0.392,736.3,01.18,0.508
2013-09-19 04:14:00,9884E-5,5C000000,-0724,0949,11055,027.7,045.3,0.393,736.3,01.18,0.508
2013-09-19 04:15:00,8394E-5,5C000000,-0724,0949,10961,027.7,045.4,0.393,736.3,01.18,0.508
2013-09-19 04:16:00,1238E-4,5C000000,-0724,0949,11035,027.7,045.4,0.393,736.3,01.18,0.508
2013-09-19 04:17:00,8670E-5,5C000000,-0724,0949,10970,027.8,045.4,0.392,736.3,01.18,0.508
2013-09-19 04:18:00,7287E-5,5C000000,-0724,0950,10909,027.8,045.4,0.392,736.3,01.18,0.508
2013-09-19 04:19:00,1440E-5,5C000000,-0724,0950,10991,027.8,045.3,0.393,736.3,01.18,0.508
2013-09-19 04:20:00,1194E-4,5C000000,-0724,0950,11043,027.8,045.3,0.393,736.3,01.18,0.508